Starlink 5093

operational
NORAD ID: 56332 Int'l Des: 2023-058 Owner: SPXS Country: US Constellation: starlink
LEOCIRCULARRETROGRADESSO

Über Starlink 5093

Beschreibung wird geladen...

Live-Position

3D-Globus wird geladen...

Nächste Überflüge

Höhenverlauf

Altitude vs Time

uPlot chart will show altitude changes over time

Zweizeiliger Elementsatz

1 56332U 23058R 25303.89194769 .00000363 00000-0 32833-4 0 9998
2 56332 97.6051 303.0966 0001704 90.8495 269.2925 15.01257589138654
Epoch: 30. Okt. 2025 • Age: 10 hours

Aktueller Status

Höhe 565.2 km
Geschwindigkeit 7.58 km/s
Subsatellitenpunkt 19.56°N, 154.57°E
Startdatum 27. Apr. 2023
Alter 2.5 years
Typ internet

Technische Details

Klassifizierung Payload
Masse 300.00 kg
Trockenmasse 260.00 kg
Gesamtmasse 300.00 kg
Länge 0.20 m
Durchmesser 2.80 m
Spannweite 9.00 m
Form Box + pan
Hersteller SPXS
Bus-Typ Starlink
Phasenstatus In Orbit
Besitzer/Staat SPXS/US

Große Konstellationen

Loading constellations...